Theta_e
313 316 317 317 317 316 315 316 318 318 311 312 314 314 313 314 313 313 313 313 310 305 304 301 297 294 293 293 292 292 291 291 291 291 291 290 290 289 288 288 288 287 286 285
314 315 317 313 313 314 315 317 319 317 309 309 312 312 312 312 313 313 313 314 312 306 304 300 296 294 293 292 292 291 291 291 290 290 289 288 288 287 287 287 287 286 285 285
315 315 310 312 313 314 315 317 318 316 311 308 308 312 311 310 308 309 310 310 310 307 304 300 296 294 293 292 292 291 291 290 290 288 288 287 286 286 286 287 286 285 286 284
314 312 312 313 315 315 318 314 313 312 313 317 308 315 314 312 310 310 313 311 307 306 303 300 297 294 293 292 292 291 290 289 288 288 287 287 287 288 287 285 285 285 284 283
315 311 312 314 315 313 316 308 310 309 312 309 314 312 313 306 310 311 313 313 309 308 304 301 297 294 293 292 291 291 290 289 287 287 287 286 286 286 285 284 284 284 283 282
313 306 310 313 305 307 304 308 308 305 308 315 314 313 312 312 311 311 312 311 309 306 304 302 297 294 293 291 291 290 289 288 287 286 286 285 285 285 284 283 283 282 282 281
312 311 307 306 311 306 308 314 318 322 319 319 308 309 312 311 311 311 313 313 307 306 303 300 296 294 292 291 291 290 289 288 286 286 285 284 284 283 282 282 281 281 281 281
315 315 309 307 314 316 310 315 321 326 319 318 305 311 313 310 310 310 306 306 303 303 302 299 297 294 293 291 291 290 289 288 286 285 284 283 282 281 281 280 279 279 279 279
314 315 305 304 305 310 309 313 312 318 305 314 314 315 312 309 308 306 306 305 305 303 301 299 297 294 292 291 291 290 289 288 285 284 283 281 280 279 279 278 277 277 278 277
313 314 308 302 303 302 306 307 312 313 322 320 314 314 313 312 311 309 306 306 307 304 302 299 296 294 292 292 291 290 289 287 285 283 282 280 279 278 277 277 277 277 277 276
312 314 310 305 307 310 305 309 307 308 314 317 316 314 309 310 310 310 309 310 309 306 303 300 297 294 293 292 291 290 288 286 284 282 280 279 278 277 277 277 276 276 275 275
311 314 316 313 303 302 307 310 310 313 315 311 313 314 309 309 310 309 310 308 307 305 305 302 298 295 292 291 290 289 287 284 282 281 279 278 277 278 276 276 275 274 274 274
309 313 318 315 306 301 306 306 307 310 312 314 316 314 310 311 309 307 309 309 306 305 304 301 297 295 293 291 289 288 286 283 281 279 278 277 277 276 275 275 274 273 273 273
311 314 316 314 312 307 309 308 307 309 312 313 313 312 312 311 310 310 309 304 305 306 304 303 298 295 293 290 289 287 284 282 279 278 277 276 276 275 275 274 274 273 272 271
310 314 315 315 314 314 313 311 309 308 309 311 312 312 311 311 311 311 310 309 308 308 303 303 299 295 292 290 287 285 282 280 278 277 276 276 274 274 274 273 272 272 271 270
307 314 313 314 313 312 313 312 313 312 312 311 309 309 309 309 309 309 309 308 307 307 307 303 296 293 291 289 286 283 281 278 276 276 276 274 274 273 273 272 271 271 270 269
309 312 315 317 314 314 315 313 313 313 312 312 313 311 311 310 310 310 310 308 307 306 306 305 296 292 290 287 284 282 279 276 275 275 274 273 273 272 272 271 270 269 268 268
313 312 313 316 316 316 314 312 311 312 312 312 311 312 311 311 310 309 309 309 308 307 306 303 297 293 289 286 283 281 276 275 275 274 273 272 272 271 270 269 268 268 268 268
311 313 314 316 316 314 310 311 311 311 311 310 310 310 309 309 308 309 308 307 307 307 307 306 297 292 287 284 281 277 275 275 274 273 272 271 270 270 269 268 268 268 268 267
311 312 313 315 316 318 314 311 309 307 310 310 309 308 308 307 309 310 309 307 306 304 302 292 289 286 284 280 276 276 275 274 273 272 271 270 269 269 268 267 268 267 268 266
312 312 313 314 316 316 311 307 306 311 312 310 309 309 308 308 308 308 306 301 295 292 289 287 284 281 280 276 276 276 274 274 272 270 269 268 268 268 268 267 268 267 266 266
314 314 314 313 314 316 311 311 310 312 311 310 310 309 307 307 306 305 305 293 289 286 284 282 281 279 275 276 277 275 274 271 269 268 267 267 267 267 267 267 267 267 265 266
316 314 314 313 314 311 311 311 310 310 311 311 310 309 307 306 305 304 302 291 287 285 283 280 279 276 275 275 276 275 270 268 267 267 266 266 266 266 267 266 266 266 266 267
311 312 312 313 312 311 309 310 310 310 309 309 308 308 306 306 305 302 299 292 285 283 281 279 277 276 275 274 274 271 268 267 266 266 265 265 265 265 265 265 265 265 267 268
305 304 306 306 306 306 310 310 310 309 307 304 304 304 305 305 303 303 302 294 288 283 280 278 277 276 274 272 269 268 267 267 266 266 266 265 265 265 265 265 265 266 267 268
298 301 303 307 307 307 307 306 304 304 305 307 307 307 307 306 303 303 299 296 287 282 279 277 277 274 271 269 267 266 266 266 266 266 265 265 264 264 264 264 265 264 265 266
Wind_Speed
1 7 16 18 17 14 7 8 16 14 4 5 16 20 25 23 20 26 25 21 17 20 19 26 29 28 27 26 26 24 22 19 16 13 10 7 6 6 6 7 10 12 12 12
4 15 18 0 6 9 8 13 20 13 2 7 14 21 24 23 26 25 25 23 16 16 15 21 27 30 31 30 28 26 23 21 18 14 12 8 6 7 8 10 12 12 12 14
16 11 2 8 8 11 11 18 14 10 5 7 11 17 7 7 11 14 22 19 14 16 16 18 25 32 31 31 31 28 25 22 19 17 14 11 9 9 9 10 8 10 15 15
10 4 8 7 11 12 13 9 11 7 5 11 4 19 11 9 11 13 22 12 12 14 14 16 22 30 35 34 30 28 25 22 19 18 15 13 11 12 10 7 10 13 13 14
6 7 9 10 9 11 5 2 4 3 8 6 11 10 10 2 7 18 21 11 15 13 15 17 19 28 32 30 31 28 25 23 20 21 17 14 14 11 9 9 13 14 16 16
7 1 4 4 3 0 9 3 2 1 3 9 17 14 8 4 7 9 12 10 9 12 13 13 17 22 26 29 30 29 27 25 23 22 21 19 15 12 12 12 10 12 14 14
5 9 3 3 5 3 5 4 6 6 5 12 3 8 20 14 13 13 18 7 7 8 10 12 16 20 26 32 33 31 30 28 25 23 21 18 16 15 14 12 13 12 13 14
7 14 13 12 16 7 12 8 6 11 13 22 7 11 13 10 15 17 7 5 4 7 8 11 15 21 26 30 33 33 33 30 26 23 21 18 16 13 13 12 10 13 16 17
8 15 3 1 1 5 8 8 3 4 2 8 11 22 8 6 11 9 15 12 14 11 11 13 14 21 25 30 36 37 35 30 28 25 21 19 16 15 12 12 12 14 15 15
4 10 3 3 2 1 4 5 4 3 6 16 24 30 17 11 15 10 11 15 16 10 10 11 13 21 25 28 32 34 35 34 29 24 20 18 16 14 12 12 13 13 14 15
5 6 3 6 12 16 6 6 4 3 5 9 19 18 3 5 3 11 14 15 12 12 13 12 13 20 23 25 30 34 34 33 28 24 20 18 16 14 12 11 11 12 14 15
8 3 11 21 3 2 8 15 18 9 10 9 13 28 6 5 5 4 7 7 9 10 11 11 13 19 23 27 29 33 32 31 28 24 21 18 15 14 12 10 11 12 14 14
10 5 6 12 5 2 8 8 11 17 15 30 13 24 15 21 7 5 8 10 7 11 14 12 12 15 21 24 27 31 32 31 26 24 22 18 16 13 10 10 11 11 12 13
8 6 12 20 21 2 5 13 19 23 17 22 25 30 37 35 22 23 17 11 15 15 14 16 15 16 20 24 28 30 31 30 27 25 21 18 15 13 11 10 10 10 10 13
5 11 12 19 23 22 24 19 19 26 28 27 30 25 33 34 27 26 21 17 19 19 15 18 16 15 15 23 28 31 32 30 28 24 21 17 14 12 9 9 8 9 10 11
4 18 19 26 30 32 34 23 35 32 35 30 25 28 36 36 33 29 35 24 27 25 22 18 15 15 16 25 29 31 32 29 26 22 19 16 15 11 9 8 8 8 10 12
9 7 9 21 24 23 15 32 34 41 38 32 31 34 36 34 30 31 33 22 24 27 25 18 17 17 17 29 34 34 32 30 26 22 20 19 15 12 9 7 7 8 9 11
15 20 13 10 8 17 22 24 37 36 36 34 29 36 35 35 34 30 25 18 22 24 24 13 13 14 22 27 30 31 31 31 27 24 24 20 17 12 8 6 5 7 8 11
25 21 10 9 16 21 3 17 23 23 34 29 33 34 36 35 15 30 23 23 25 24 20 15 15 19 25 30 32 32 29 27 24 22 20 19 15 12 8 4 4 6 8 11
25 25 18 12 14 21 21 28 23 5 8 29 29 29 30 8 9 19 25 16 18 18 10 7 14 19 27 32 37 36 31 28 24 21 18 16 13 10 6 3 3 6 9 11
9 14 24 22 22 15 11 9 3 12 19 32 31 27 26 22 19 24 10 4 0 2 7 16 21 20 24 28 32 30 27 24 25 23 20 16 12 9 6 3 2 6 9 11
23 11 11 13 18 25 17 23 23 28 29 24 22 14 11 15 22 18 18 8 8 9 11 18 15 18 22 30 32 24 23 21 23 22 18 15 12 9 6 3 1 4 7 9
21 26 25 19 13 10 13 28 29 31 27 23 17 17 10 15 17 16 13 10 10 10 10 17 17 22 25 29 31 27 23 25 23 21 20 17 13 9 6 4 2 2 4 7
7 15 11 20 24 17 10 13 17 21 23 25 23 22 8 16 13 13 8 7 9 11 12 16 18 16 19 24 27 30 32 27 25 22 18 15 12 9 6 5 3 2 3 7
11 9 8 15 23 22 20 15 14 15 17 14 16 11 16 16 15 17 13 12 12 13 13 20 15 16 23 26 31 35 37 36 31 22 17 16 12 10 7 5 4 2 2 7
22 21 15 18 20 16 16 14 19 23 27 25 21 23 21 19 21 17 15 13 13 15 16 17 22 26 29 28 29 32 37 37 31 21 17 14 10 8 6 6 4 2 1 7
Wind_Direction
105 229 240 246 230 267 267 258 261 267 196 243 255 261 269 281 275 264 271 263 246 233 224 208 203 198 193 193 192 194 193 194 193 196 200 208 205 215 252 246 273 272 289 295
178 239 252 357 217 228 233 260 264 280 239 219 274 273 273 267 268 270 272 270 251 239 222 205 199 198 196 194 195 196 197 197 198 200 202 200 205 234 239 248 261 264 289 293
230 259 80 198 207 206 227 236 255 265 323 234 293 275 238 257 263 270 261 260 251 227 213 201 202 201 198 197 196 196 198 199 201 203 204 213 234 251 252 250 255 273 286 293
241 247 210 198 229 205 239 230 244 263 295 280 4 291 280 252 244 264 271 244 224 215 211 202 201 202 200 199 197 197 197 198 201 205 207 207 216 226 229 252 267 283 290 294
224 180 190 206 229 177 249 103 170 206 255 315 254 269 279 168 244 257 261 258 223 208 199 200 202 203 202 196 194 195 195 195 197 203 205 208 222 237 255 271 280 284 289 286
261 112 217 213 83 119 136 113 134 143 258 254 256 225 278 229 211 248 265 229 204 196 194 202 200 199 199 197 196 193 194 196 196 196 202 208 217 224 236 249 262 270 272 285
196 220 170 177 135 120 193 176 278 258 226 264 152 233 261 283 242 234 254 252 185 178 182 186 188 192 193 196 198 193 194 196 195 197 201 206 212 222 237 244 252 263 276 273
238 255 183 183 217 207 185 216 204 261 278 288 114 250 277 227 252 247 269 263 206 215 206 201 195 195 195 196 199 197 196 196 193 196 199 202 210 217 230 244 258 266 268 273
209 256 100 241 107 181 163 198 231 282 112 282 255 259 238 190 255 249 252 243 240 230 205 205 202 199 197 198 199 197 194 196 193 194 195 200 204 213 222 236 249 261 268 281
250 257 123 125 151 50 227 138 136 199 261 260 275 282 276 239 245 215 237 237 239 222 215 210 204 204 204 203 202 200 197 192 190 191 195 197 202 211 224 241 251 263 276 282
207 218 202 151 204 192 169 203 225 308 225 254 268 268 82 197 233 207 221 231 240 225 216 209 214 208 209 205 201 197 195 190 185 187 190 194 202 210 227 244 262 269 279 285
208 203 232 238 138 318 253 232 213 225 224 234 260 271 112 46 143 196 243 252 239 229 213 214 211 205 204 205 200 197 195 187 183 185 187 194 199 210 226 240 259 272 284 291
168 203 239 252 212 177 212 206 230 241 258 249 234 254 255 268 290 235 242 245 250 228 217 223 214 212 210 205 199 195 194 187 177 181 186 192 201 210 223 247 268 279 286 296
177 172 216 239 251 93 196 227 221 224 233 253 242 260 275 275 273 277 268 233 235 240 231 228 221 218 213 203 198 193 193 184 175 181 185 191 198 204 223 244 262 277 291 303
175 233 238 252 267 279 280 275 257 236 242 244 258 260 263 275 276 271 272 271 270 265 232 234 229 215 206 199 193 190 189 179 177 178 183 189 194 206 227 251 266 285 300 296
196 246 247 253 260 263 260 262 263 266 260 254 256 262 263 268 278 282 275 268 272 270 257 237 221 201 199 194 189 184 182 176 174 177 179 182 192 205 223 246 272 289 290 294
208 217 210 239 228 246 252 239 247 255 261 256 254 253 267 268 265 261 271 274 265 266 264 260 208 203 199 191 184 183 174 168 171 173 177 185 192 203 219 241 268 283 294 304
242 226 228 247 229 229 231 241 236 243 249 257 254 253 255 259 265 273 271 267 260 262 268 248 209 203 193 183 179 171 165 165 169 173 178 183 189 197 207 232 268 289 301 307
218 231 235 232 224 243 185 233 225 230 245 256 250 252 250 255 268 270 262 256 260 265 271 264 207 191 172 171 167 161 159 161 168 176 179 183 186 185 194 218 263 292 306 310
225 227 229 225 233 238 237 236 240 73 251 250 241 249 255 263 248 262 271 242 240 244 250 160 159 163 164 166 160 161 164 163 169 174 174 177 183 182 176 192 292 314 318 307
205 216 227 234 246 247 219 215 103 200 243 245 250 247 251 251 237 253 270 198 294 152 156 150 155 162 165 162 163 160 160 167 164 161 164 166 173 174 173 158 333 322 316 312
223 206 213 231 243 249 218 227 221 236 242 242 258 251 218 238 250 247 254 190 190 178 158 164 152 155 158 161 161 156 155 154 156 154 155 161 165 170 165 148 57 334 323 324
231 226 237 221 234 240 209 222 227 242 252 254 254 257 220 245 245 245 234 204 197 184 171 169 156 147 157 165 162 150 147 156 155 153 155 160 159 167 163 149 105 50 336 338
289 281 279 270 259 282 278 253 253 250 246 253 258 263 231 240 247 243 235 195 183 176 174 167 154 154 153 160 150 145 151 156 159 149 153 155 163 164 153 136 115 65 344 337
275 292 279 284 287 280 282 278 291 303 304 288 281 274 260 256 251 245 240 216 196 178 169 167 163 159 157 157 142 153 158 160 158 155 156 158 161 161 143 120 113 97 324 329
269 278 281 280 299 293 289 301 301 298 294 291 287 283 272 263 260 248 236 224 187 176 167 168 168 159 156 154 149 158 163 161 153 152 157 155 154 145 124 108 110 69 352 359